Flag for U.S.A. Weather past 2 weeks in Waterbury, Connecticut, U.S.A.

Now
30 °F

Cloudy.


Feels Like: 20 °F
Forecast: 16 / 34 °F
Wind: 14 mph from Northwest

Location: Oxford

Current Time: Jan 30, 2015 at 2:07:10 PM

Latest Report: Jan 30, 2015 at 12:45 PM


Visibility: 10 mi

Pressure: 29.76 "Hg

Humidity: 64%

Dew point: 19 °F

Location of WaterburyLocation

Historic Weather in Waterbury — Graph

°F

Waterbury temperature yesterday

Maximum temperature yesterday: 30 °F (at 12:52 PM)
Minimum temperature yesterday: 5 °F (at 5:15 AM)
Average temperature yesterday: 19 °F

Past Weeks' High & Low Weather Summary

 TemperatureHumidityPressure
High46 °F (Jan 18, 1:04 PM)100% (Jan 30, 10:45 AM)30.35 "Hg (Jan 30, 10:45 AM)
Low5 °F (Jan 29, 5:15 AM)25% (Jan 21, 2:50 PM)29.21 "Hg (Jan 24, 3:50 PM)
Average25 °F56%29.92 "Hg
* Reported Jan 15 12:52 PM — Jan 30 12:45 PM, Waterbury, Weather by CustomWeather, © 2014

Note: Actual official high and low records may vary slightly from our data, if they occured in-between our weather recording intervals... More about our weather records

Advertising

Waterbury weather history for previous 24 hours

 ConditionsComfort  
Time TempWeatherWind HumidityBarometerVisibility
12:45 PM
Jan 30
30 °FCloudy.14 mph64%29.76 "Hg10 mi
11:45 AM30 °FLight snow. Cloudy.14 mph69%29.77 "Hg8 mi
11:00 AM28 °FMostly cloudy.6 mph74%29.79 "Hg7 mi
10:45 AM21 °FLight snow. Ice fog.6 mph100%29.80 "Hg3 mi
9:45 AM28 °FLight snow. Ice fog.No wind74%29.82 "Hg1 mi
8:45 AM28 °FLight snow. Ice fog.No wind74%29.81 "Hg1 mi
7:45 AM30 °FLight snow. Ice fog.No wind75%29.81 "Hg2 mi
6:45 AM30 °FLight snow. Ice fog.No wind75%29.81 "Hg3 mi
5:50 AM30 °FLight snow. Mostly cloudy.No wind59%29.82 "Hg4 mi
5:35 AM30 °FMostly cloudy.No wind80%29.82 "Hg3 mi
5:15 AM30 °FOvercast.No wind75%29.83 "Hg4 mi
4:55 AM30 °FMostly cloudy.No wind75%29.83 "Hg9 mi
4:35 AM30 °FMostly cloudy.5 mph75%29.84 "Hg4 mi
4:15 AM30 °FMostly cloudy.5 mph80%29.85 "Hg5 mi
3:55 AM30 °FMostly cloudy.5 mph80%29.86 "Hg2 mi
3:35 AM30 °FLow clouds.5 mph80%29.86 "Hg1 mi
3:15 AM30 °FMostly cloudy.5 mph80%29.87 "Hg2 mi
2:55 AM30 °FMostly cloudy.7 mph75%29.88 "Hg2 mi
2:35 AM30 °FLow clouds.7 mph75%29.90 "Hg1 mi
2:15 AM30 °FOvercast.6 mph75%29.90 "Hg2 mi
1:55 AM30 °FMostly cloudy.6 mph75%29.91 "Hg5 mi
1:35 AM30 °FLow clouds.5 mph75%29.92 "Hg5 mi
1:15 AM30 °FOvercast.7 mph75%29.93 "Hg8 mi
12:55 AM30 °FMostly cloudy.3 mph69%29.94 "Hg9 mi
12:35 AM30 °FMostly cloudy.3 mph69%29.95 "Hg10 mi
12:15 AM30 °FMostly cloudy.6 mph69%29.95 "Hg10 mi
11:55 PM
Jan 29
28 °FOvercast.7 mph74%29.96 "Hg10 mi
11:35 PM28 °FOvercast.7 mph74%29.98 "Hg10 mi
11:15 PM28 °FPartly cloudy.6 mph74%29.99 "Hg10 mi
10:35 PM28 °FMostly cloudy.3 mph69%30.01 "Hg10 mi
10:15 PM28 °FMostly cloudy.5 mph69%30.01 "Hg10 mi
9:55 PM28 °FOvercast.5 mph69%30.03 "Hg10 mi
9:35 PM28 °FOvercast.5 mph64%30.04 "Hg10 mi
9:15 PM28 °FOvercast.3 mph64%30.04 "Hg10 mi
8:55 PM28 °FOvercast.6 mph64%30.04 "Hg10 mi
7:52 PM27 °FMostly cloudy.6 mph64%30.08 "Hg10 mi
6:52 PM27 °FOvercast.9 mph54%30.09 "Hg10 mi
5:52 PM27 °FOvercast.9 mph46%30.11 "Hg10 mi
4:52 PM27 °FOvercast.9 mph36%30.10 "Hg10 mi
3:52 PM28 °FPassing clouds.8 mph31%30.13 "Hg10 mi
2:52 PM30 °FPartly sunny.7 mph31%30.16 "Hg10 mi
Weather by CustomWeather, © 2014

See weather overviewHow to use our weather pages